Regional Weather Roundup
Issued by NWS

Home | Current Version | Previous Version | Text Only | Print | Product List | Glossary Off
Versions: 1 2 3 4 5 6 7 8 9 10 11 12 13 14 15 16 17 18 19 20 21 22 23 24 25 26 27 28 29 30 31 32 33 34 35 36 37 38 39 40 41 42 43 44 45 46 47 48 49 50

330
ASUS43 KIND 090709
RWRIN

WEATHER ROUNDUP FOR INDIANA
NATIONAL WEATHER SERVICE INDIANAPOLIS IN
200 AM EST TUE FEB 09 2016

NOTE: "FAIR" INDICATES FEW OR NO CLOUDS BELOW 12,000 FEET WITH NO
SIGNIFICANT WEATHER AND/OR OBSTRUCTIONS TO VISIBILITY.

* - STATION DOES NOT REPORT WEATHER SUCH AS PRECIPITATION OR FOG.

+ - STATION NOT QUALITY CONTROLLED BY THE NATIONAL WEATHER SERVICE.
    USE DATA WITH CAUTION...ESPECIALLY DEWPOINT AND RELATIVE
    HUMIDITY OBSERVATIONS.

INZ001>003-010>013-019-020-090800-
NORTHWEST INDIANA

CITY           SKY/WX    TMP DP  RH WIND       PRES   REMARKS
GARY /AIRPORT/ FLURRIES  24  18  78 W13       29.73F WCI  13
KNOX *+        CLOUDY    27  23  86 W10       29.69F WCI  17
LA PORTE +     CLOUDY    26  26  96 W9        29.69S WCI  17
MICHIGAN CITY+ LGT SNOW  27  25  93 NW6       29.70F WCI  20
MONTICELLO +   CLOUDY    24  17  74 W12G17    29.72S WCI  13
RENSSELAER +   CLOUDY    27  18  69 W15       29.72F WCI  15
VALPARAISO     LGT SNOW  24  20  84 NW9       29.70F WCI  14

$$

LMZ046-743>745-090800-
SOUTHERN LAKE MICHIGAN

STATION/POSITION TIME  TEMP    WIND        PRES    WAVE
                       AIR SEA DIR/SP/G            HT
                 (UTC) (F)     (DEG/KT/KT) (MB)    (FT)
BURNS HARBOR     0600   25     300/ 16/ 21 1006.8F
MICHIGAN CITY    0600   25     250/ 20/ 23   N/A

$$

INZ004-005-014>016-021>024-090800-
NORTH CENTRAL INDIANA

CITY           SKY/WX    TMP DP  RH WIND       PRES   REMARKS
GOSHEN         CLOUDY    27  23  85 W14       29.64F WCI  16
LOGANSPORT +   FLURRIES  25  19  80 W10       29.71F WCI  15
PERU/GRISSOM   MIX PCPN  24  21  87 W15       29.67F WCI  11
ROCHESTER +    LGT SNOW  28  21  74 W9        29.68F WCI  20
SOUTH BEND     LGT SNOW  25  24  96 W16       29.65F FOG     WCI  12
WARSAW +       CLOUDY    27  23  86 W10       29.65F WCI  17

$$

INZ006>009-017-018-025>027-090800-
NORTHEAST INDIANA

CITY           SKY/WX    TMP DP  RH WIND       PRES   REMARKS
ANGOLA *+      CLOUDY    27  25  93 W8        29.59F WCI  18
AUBURN +       CLOUDY    28  23  80 W9G16     29.63F WCI  20
FORT WAYNE     CLOUDY    29  22  75 W14       29.66F WCI  18
HUNTINGTON +   CLOUDY    24  19  81 W14       29.66F WCI  12

$$

INZ028-029-035-036-043>045-051>053-090800-
WEST CENTRAL INDIANA

CITY           SKY/WX    TMP DP  RH WIND       PRES   REMARKS
GREENCASTLE +  FLURRIES  21  12  68 W5        29.76F WCI  15
LAFAYETTE      CLOUDY    21  16  81 W14G22    29.74F WCI   8
TERRE HAUTE    FLURRIES  20  15  81 W7        29.80F WCI  11

$$

INZ030>032-037>040-046>048-054>057-064-065-090800-
CENTRAL INDIANA

CITY           SKY/WX    TMP DP  RH WIND       PRES   REMARKS
FISHERS *+     CLOUDY    21  21 100 W15       29.72F WCI   8
FRANKFORT +    CLOUDY    23  16  74 W17       29.73F WCI   9
GREENWOOD *+   CLOUDY    23  19  86 W14       29.73  WCI  11
INDIANAPOLIS   FLURRIES  22  16  78 W13       29.72F WCI  10
-EAGLE CREEK   CLOUDY    22  18  85 W13       29.72F WCI  10
KOKOMO *+      CLOUDY    25  19  80 W17       29.69F WCI  11
MARION +       CLOUDY    24  17  74 W13       29.69F HAZE    WCI  12
MT COMFORT *+  CLOUDY    21  18  86 W13       29.72S WCI   9
SHELBYVILLE    FLURRIES  23  17  78 W12       29.72F WCI  12
ZIONSVILLE +   FLURRIES  21  19  91 W12G20    29.72F WCI   9

$$

INZ033-034-041-042-049-050-058-059-090800-
EAST CENTRAL INDIANA

CITY           SKY/WX    TMP DP  RH WIND       PRES   REMARKS
MUNCIE         LGT SNOW  24  20  84 W10G21    29.68F FOG     WCI  14

$$

INZ060-061-067>069-081>083-085>088-090800-
SOUTHWEST INDIANA

CITY           SKY/WX    TMP DP  RH WIND       PRES   REMARKS
EVANSVILLE     FLURRIES  24  15  68 W8        29.87F WCI  15
HUNTINGBURG *+ CLOUDY    21  14  73 W14       29.84F WCI   8
WASHINGTON +   CLOUDY    21  13  72 W10       29.83S WCI   9

$$

INZ062-063-066-070>080-084-089>092-090800-
SOUTH CENTRAL AND SOUTHEAST INDIANA

CITY           SKY/WX    TMP DP  RH WIND       PRES   REMARKS
BEDFORD +      FLURRIES  21  18  86 W10       29.78F WCI  10
BLOOMINGTON    FLURRIES  20  15  81 W12       29.76F WCI   8
MADISON *+     CLOUDY    23  14  68 W9        29.78F WCI  13
NORTH VERNON + FLURRIES  23  16  74 W3        29.76F
SEYMOUR +      FLURRIES  23  16  74 W14       29.78F WCI  11

$$





USA.gov is the U.S. government's official web portal to all federal, state and local government web resources and services.